Regional Weather Roundup
Issued by NWS Little Rock, AR

Home | Current Version | Previous Version | Graphics & Text | Print | Product List | Glossary On
Versions: 1 2 3 4 5 6 7 8 9 10 11 12 13 14 15 16 17 18 19 20 21 22 23 24 25 26 27 28 29 30 31
000
ASUS44 KLZK 162305
RWRLZK

WEATHER ROUNDUP FOR ARKANSAS
NATIONAL WEATHER SERVICE LITTLE ROCK AR
600 PM CDT WED AUG 16 2017

NOTE: "FAIR" INDICATES FEW OR NO CLOUDS BELOW 12,000 FEET WITH NO
SIGNIFICANT WEATHER AND/OR OBSTRUCTIONS TO VISIBILITY.

ARZ001-003-010-029-170000-
NORTHWEST ARKANSAS

CITY           SKY/WX    TMP DP  RH WIND       PRES   REMARKS
FAYETTEVILLE   CLOUDY    79  76  90 S10       29.91F
FORT SMITH     SUNNY     89  77  67 S9        29.87F HX 101
HARRISON       MOSUNNY   82  73  74 S9        29.93F HX  87
BENTONVILLE    MOSUNNY   81  73  78 S10       29.91F HX  85
ROGERS         CLOUDY    80  75  84 S14       29.91F HX  85
SILOAM SPGS    CLOUDY    79  72  78 S14       29.89F
HIGHFILL       CLOUDY    79  76  90 S10       29.91F
SPRINGDALE     PTSUNNY   79  75  89 S10G18    29.93F
$$

ARZ004-005-016-170000-
NORTH CENTRAL ARKANSAS

CITY           SKY/WX    TMP DP  RH WIND       PRES   REMARKS
BATESVILLE     SUNNY     88  73  62 S9        29.92F HX  96
FLIPPIN        MOSUNNY   86  70  58 S5        29.89S HX  90
$$

ARZ040-041-170000-
WEST CENTRAL ARKANSAS

CITY           SKY/WX    TMP DP  RH WIND       PRES   REMARKS
MENA           SUNNY     90  77  66 CALM      29.93F HX 102
MOUNT IDA      SUNNY     90  71  53 CALM      29.92F HX  96
$$

ARZ009-017-025-026-028-170000-
NORTHEAST ARKANSAS

CITY           SKY/WX    TMP DP  RH WIND       PRES   REMARKS
CORNING        FAIR      88  82  84 S12G21    29.91F HX 108
JONESBORO      SUNNY     88  79  74 S12       29.92F HX 103
NEWPORT        SUNNY     89  77  67 S14       29.92F HX 101
WALNUT RIDGE   SUNNY     88  77  70 S14       29.91S HX 100
BLYTHEVILLE    MOSUNNY   87  77  72 S9        29.95F HX  99
$$

ARZ022-023-033-042-044-170000-
CENTRAL ARKANSAS

CITY           SKY/WX    TMP DP  RH WIND       PRES   REMARKS
LITTLE ROCK    MOSUNNY   90  74  59 SW12      29.93S HX  99
N LITTLE ROCK    N/A     90  74  58 SW7       29.94R HX  99
JACKSONVILLE   MOSUNNY   92  76  59 S9        29.93S HX 103
CONWAY           N/A     90  77  66 S12       29.90S HX 102
SEARCY           N/A    N/A N/A N/A MISG        N/A
HOT SPRINGS    MOSUNNY   92  74  55 SW9       29.94R HX 101
RUSSELLVILLE   MOSUNNY   89  73  59 SW5       29.89F HX  97
CLINTON        FAIR      88  75  66 SW5G12    29.91F HX  97
$$

ARZ036-170000-
EAST ARKANSAS

CITY           SKY/WX    TMP DP  RH WIND       PRES   REMARKS
WEST MEMPHIS   SUNNY     87  79  76 S6        29.94S HX 101
$$

ARZ050-053-066-070-073-170000-
SOUTHWEST ARKANSAS

CITY           SKY/WX    TMP DP  RH WIND       PRES   REMARKS
ARKADELPHIA    FAIR      92  77  61 SW6       29.93S HX 105
CAMDEN         MOSUNNY   91  75  59 S6        29.93S HX 102
TEXARKANA      SUNNY     91  74  57 S7        29.92F HX 100
EL DORADO      MOSUNNY   87  75  67 SE7       29.96R HX  96
DE QUEEN       SUNNY     91  75  59 S9        29.89F HX 101
$$

ARZ056-057-069-170000-
SOUTHEAST ARKANSAS

CITY           SKY/WX    TMP DP  RH WIND       PRES   REMARKS
PINE BLUFF     SUNNY     91  74  57 S9        29.95R HX 100
MONTICELLO     MOSUNNY   92  75  57 S7        29.97R HX 103

$$






USA.gov is the U.S. government's official web portal to all federal, state and local government web resources and services.